FW1543 Weather Reports


Display with metric or nautical units.
time (UTC)temp
F
wind
direction
speed
MPH
gust
MPH
rain 1hr
in
rain 24hr
in
rain mn
in
humidity
%
barometer
mb
20171211225217 55 90 0.0 0.0 0.00 0.00 0.00 72 1019.8
20171211224217 56 90 0.0 0.0 0.00 0.00 0.00 71 1020.0
20171211223217 57 90 0.0 0.0 0.00 0.00 0.00 69 1020.0
20171211222217 57 90 0.0 0.0 0.00 0.00 0.00 68 1020.3
20171211221217 58 247 0.0 1.0 0.00 0.00 0.00 67 1020.2
20171211220217 58 232 0.0 2.0 0.00 0.00 0.00 66 1020.3
20171211215216 58 258 0.0 2.0 0.00 0.00 0.00 65 1020.3
20171211214217 59 250 0.0 2.0 0.00 0.00 0.00 64 1020.3
20171211213217 60 282 0.0 2.0 0.00 0.00 0.00 61 1020.5
20171211212217 60 167 0.0 2.0 0.00 0.00 0.00 59 1020.5
20171211211216 60 262 2.0 5.0 0.00 0.00 0.00 59 1020.5
20171211210216 61 289 0.0 1.0 0.00 0.00 0.00 56 1020.4
20171211205216 61 177 0.0 2.0 0.00 0.00 0.00 54 1020.5
20171211204217 61 322 2.0 4.0 0.00 0.00 0.00 52 1020.6
20171211203216 62 207 1.0 3.0 0.00 0.00 0.00 49 1020.7
20171211202217 62 265 1.0 4.0 0.00 0.00 0.00 46 1020.7
20171211201216 62 254 1.0 4.0 0.00 0.00 0.00 46 1020.9
20171211200217 63 200 3.0 6.0 0.00 0.00 0.00 41 1020.7
20171211195216 63 237 1.0 4.0 0.00 0.00 0.00 42 1020.9
20171211194216 64 211 2.0 4.0 0.00 0.00 0.00 41 1020.9
20171211193217 63 266 0.0 3.0 0.00 0.00 0.00 41 1021.0
20171211192216 63 222 0.0 2.0 0.00 0.00 0.00 41 1021.1
20171211191217 63 267 2.0 4.0 0.00 0.00 0.00 40 1021.3
20171211190217 64 292 1.0 5.0 0.00 0.00 0.00 38 1021.5
20171211185216 64 291 1.0 3.0 0.00 0.00 0.00 37 1021.7
20171211184217 64 325 1.0 5.0 0.00 0.00 0.00 39 1021.9
20171211183217 64 229 1.0 3.0 0.00 0.00 0.00 38 1021.9
20171211182217 64 275 1.0 5.0 0.00 0.00 0.00 38 1022.1
20171211181216 63 264 1.0 2.0 0.00 0.00 0.00 42 1022.3
20171211180216 62 217 1.0 3.0 0.00 0.00 0.00 44 1022.5
20171211175216 62 219 1.0 4.0 0.00 0.00 0.00 41 1022.6
20171211174216 62 306 1.0 4.0 0.00 0.00 0.00 40 1023.0
20171211173216 63 223 1.0 3.0 0.00 0.00 0.00 41 1023.2
20171211172216 63 264 0.0 2.0 0.00 0.00 0.00 41 1023.4
20171211171216 63 248 1.0 3.0 0.00 0.00 0.00 40 1023.6
20171211170216 64 231 1.0 2.0 0.00 0.00 0.00 41 1023.9
20171211165217 63 338 1.0 3.0 0.00 0.00 0.00 41 1024.0
20171211164219 62 223 1.0 3.0 0.00 0.00 0.00 43 1024.1
20171211163217 62 339 2.0 5.0 0.00 0.00 0.00 41 1024.3
20171211162216 61 220 0.0 3.0 0.00 0.00 0.00 46 1024.4
20171211161216 60 282 1.0 2.0 0.00 0.00 0.00 43 1024.6
20171211160216 60 309 0.0 3.0 0.00 0.00 0.00 47 1024.9
20171211155216 58 8 0.0 2.0 0.00 0.00 0.00 53 1025.1
20171211154216 57 3 0.0 2.0 0.00 0.00 0.00 52 1025.1
20171211153217 55 343 0.0 2.0 0.00 0.00 0.00 56 1025.1
20171211152216 54 336 0.0 2.0 0.00 0.00 0.00 62 1025.2
20171211151216 52 252 0.0 1.0 0.00 0.00 0.00 70 1025.4
20171211150216 50 90 0.0 1.0 0.00 0.00 0.00 77 1025.4
20171211145216 48 245 0.0 1.0 0.00 0.00 0.00 80 1025.6
20171211144216 46 245 0.0 1.0 0.00 0.00 0.00 83 1025.6
20171211143216 44 90 0.0 0.0 0.00 0.00 0.00 88 1025.6
20171211142227 41 245 0.0 1.0 0.00 0.00 0.00 90 1025.8
20171211141216 40 90 0.0 1.0 0.00 0.00 0.00 91 1025.8
20171211140216 37 245 0.0 1.0 0.00 0.00 0.00 97 1025.7
20171211135216 34 90 0.0 0.0 0.00 0.00 0.00 95 1025.7
20171211134216 33 245 0.0 2.0 0.00 0.00 0.00 96 1025.6
20171211133216 31 245 0.0 1.0 0.00 0.00 0.00 96 1025.4
20171211132216 29 90 0.0 0.0 0.00 0.00 0.00 96 1025.3
20171211131216 29 90 0.0 0.0 0.00 0.00 0.00 96 1025.5
20171211130216 28 245 0.0 1.0 0.00 0.00 0.00 96 1025.6
20171211125216 28 90 0.0 0.0 0.00 0.00 0.00 95 1025.5
20171211124216 28 90 0.0 0.0 0.00 0.00 0.00 95 1025.4
20171211123216 28 90 0.0 0.0 0.00 0.00 0.00 95 1025.4
20171211122204 28 0.0 0.0 0.00 0.00 0.00 95 1025.3
20171211121416 28 90 0.0 0.0 0.00 0.00 0.00 95 1025.4
20171211120416 28 90 0.0 0.0 0.00 0.00 0.00 95 1025.3
20171211115416 28 90 0.0 0.0 0.00 0.00 0.00 95 1025.4
20171211114416 28 90 0.0 0.0 0.00 0.00 0.00 95 1025.4
20171211113416 28 90 0.0 0.0 0.00 0.00 0.00 95 1025.4
20171211112416 28 90 0.0 0.0 0.00 0.00 0.00 95 1025.2
20171211111416 28 90 0.0 0.0 0.00 0.00 0.00 95 1025.2
20171211110416 28 90 0.0 0.0 0.00 0.00 0.00 95 1025.3
20171211105416 28 90 0.0 0.0 0.00 0.00 0.00 95 1025.2
20171211104416 28 90 0.0 0.0 0.00 0.00 0.00 95 1025.3
20171211103416 28 90 0.0 0.0 0.00 0.00 0.00 95 1025.4
20171211102415 28 90 0.0 0.0 0.00 0.00 0.00 95 1025.4
20171211101416 28 90 0.0 0.0 0.00 0.00 0.00 95 1025.4
20171211100416 29 90 0.0 0.0 0.00 0.00 0.00 95 1025.6
20171211095415 29 90 0.0 0.0 0.00 0.00 0.00 95 1025.5
20171211094415 29 90 0.0 0.0 0.00 0.00 0.00 95 1025.6
20171211093415 29 90 0.0 0.0 0.00 0.00 0.00 95 1025.6
20171211092416 29 90 0.0 0.0 0.00 0.00 0.00 95 1025.5
20171211091436 29 90 0.0 0.0 0.00 0.00 0.00 95 1025.5
20171211090415 29 90 0.0 0.0 0.00 0.00 0.00 95 1025.6
20171211085415 29 90 0.0 0.0 0.00 0.00 0.00 95 1025.5
20171211084415 29 90 0.0 0.0 0.00 0.00 0.00 95 1025.6
20171211083415 29 90 0.0 0.0 0.00 0.00 0.00 95 1025.5
20171211082415 29 90 0.0 0.0 0.00 0.00 0.00 94 1025.5
20171211081416 29 90 0.0 0.0 0.00 0.00 0.00 95 1025.5
20171211080415 30 90 0.0 0.0 0.00 0.00 0.00 94 1025.5
20171211075415 30 90 0.0 0.0 0.00 0.00 0.00 94 1025.5
20171211074415 30 90 0.0 0.0 0.00 0.00 0.00 94 1025.5
20171211073415 30 90 0.0 0.0 0.00 0.00 0.00 94 1025.5
20171211072415 30 90 0.0 0.0 0.00 0.00 0.00 94 1025.4
20171211071415 30 90 0.0 0.0 0.00 0.00 0.00 94 1025.5
20171211070418 30 90 0.0 0.0 0.00 0.00 0.00 94 1025.6
20171211065415 30 90 0.0 0.0 0.00 0.00 0.00 94 1025.6
20171211064415 31 245 0.0 1.0 0.00 0.00 0.00 94 1025.6
20171211063415 31 245 0.0 1.0 0.00 0.00 0.00 94 1025.6
20171211062415 31 90 0.0 0.0 0.00 0.00 0.00 94 1025.7
20171211061416 31 90 0.0 0.0 0.00 0.00 0.00 94 1025.8
20171211060415 31 90 0.0 0.0 0.00 0.00 0.00 94 1025.8
20171211055415 31 90 0.0 0.0 0.00 0.00 0.00 94 1025.9
20171211054416 31 90 0.0 0.0 0.00 0.00 0.00 94 1026.3
20171211053415 31 90 0.0 0.0 0.00 0.00 0.00 94 1026.4
20171211052415 31 90 0.0 0.0 0.00 0.00 0.00 94 1026.5
20171211051415 31 90 0.0 0.0 0.00 0.00 0.00 94 1026.6
20171211050415 31 90 0.0 0.0 0.00 0.00 0.00 94 1026.6
20171211045415 31 90 0.0 0.0 0.00 0.00 0.00 94 1026.9
20171211044415 32 90 0.0 0.0 0.00 0.00 0.00 94 1026.9
20171211043415 32 90 0.0 0.0 0.00 0.00 0.00 94 1027.0
20171211042415 32 245 0.0 1.0 0.00 0.00 0.00 93 1027.0
20171211041415 32 90 0.0 0.0 0.00 0.00 0.00 93 1026.9
20171211040415 32 90 0.0 0.0 0.00 0.00 0.00 93 1027.0
20171211035415 32 90 0.0 0.0 0.00 0.00 0.00 93 1027.0
20171211034415 32 90 0.0 0.0 0.00 0.00 0.00 93 1026.9
20171211033415 32 90 0.0 0.0 0.00 0.00 0.00 93 1026.7
20171211032415 33 90 0.0 0.0 0.00 0.00 0.00 93 1026.5
20171211031415 33 90 0.0 0.0 0.00 0.00 0.00 92 1026.4
20171211030415 33 245 0.0 1.0 0.00 0.00 0.00 92 1026.2
20171211025415 33 90 0.0 0.0 0.00 0.00 0.00 92 1026.4
20171211024415 33 90 0.0 0.0 0.00 0.00 0.00 92 1026.5
20171211023415 34 90 0.0 0.0 0.00 0.00 0.00 92 1026.5
20171211022415 34 90 0.0 0.0 0.00 0.00 0.00 91 1026.4
20171211021415 34 90 0.0 0.0 0.00 0.00 0.00 91 1026.6
20171211020416 34 90 0.0 0.0 0.00 0.00 0.00 91 1026.5
20171211015415 34 90 0.0 0.0 0.00 0.00 0.00 91 1026.6
20171211014415 35 90 0.0 0.0 0.00 0.00 0.00 91 1026.6
20171211013415 35 90 0.0 0.0 0.00 0.00 0.00 90 1026.7
20171211012417 35 90 0.0 0.0 0.00 0.00 0.00 89 1026.7
20171211011417 36 90 0.0 1.0 0.00 0.00 0.00 89 1026.7
20171211010417 36 90 0.0 0.0 0.00 0.00 0.00 88 1026.7
20171211005417 36 90 0.0 0.0 0.00 0.00 0.00 87 1026.7
20171211004417 37 245 0.0 1.0 0.00 0.00 0.00 87 1026.8
20171211003416 37 90 0.0 0.0 0.00 0.00 0.00 85 1026.7
20171211002417 38 90 0.0 0.0 0.00 0.00 0.00 84 1026.7
20171211001417 39 90 0.0 0.0 0.00 0.00 0.00 82 1026.4
20171211000417 39 90 0.0 1.0 0.00 0.00 0.00 81 1026.4
20171210235416 40 90 0.0 0.0 0.00 0.00 0.00 79 1026.3
20171210234416 41 90 0.0 0.0 0.00 0.00 0.00 77 1026.1
20171210233417 42 90 0.0 0.0 0.00 0.00 0.00 75 1026.2
20171210232417 43 90 0.0 0.0 0.00 0.00 0.00 72 1026.1
20171210231417 44 90 0.0 0.0 0.00 0.00 0.00 69 1025.9
20171210230416 45 90 0.0 0.0 0.00 0.00 0.00 67 1026.0
20171210225416 46 244 0.0 1.0 0.00 0.00 0.00 64 1025.9